User: anonymous   Login
Location: Mentone
(34.5413°N, 85.5351°W)
Time: 20:04:29
(UTC-05:00)
Language:

Cosmos 2150 Rocket - Orbit

View from above orbital plane
View from above orbital plane
View from above satellite
View from above satellite

Ground track
Ground track

The orbit data is extracted from the following two-line orbital elements,

1 21419U 91041B   14298.10277038  .00000492  00000-0  18532-3 0  6471
2 21419 074.0404 266.2667 0040060 068.0257 004.8433 14.33584340222015
Epoch (UTC): 25 October 2014 02:27:59
Eccentricity: 0.0040060
inclination: 74.0404°
perigee height: 751 km
apogee height: 808 km
right ascension of ascending node: 266.2667°
argument of perigee: 68.0257°
revolutions per day: 14.33584340
mean anomaly at epoch: 4.8433°
orbit number at epoch: 22201

The dashed part of the orbit path shows where the satellite is in the earth's shadow,  

DLR